Regional Weather Roundup
Issued by NWS Midland/Odessa, TX

Skip options and go directly to product.
Home | Oldest Version | Previous Version | Current Version | All | Graphics & Text | Save Text | Print | Product List | Glossary On

Skip product version selection by date and time.   
921
ASUS44 KMAF 040001
RWRMAF
MIDLAND AREA WEATHER ROUNDUP
NATIONAL WEATHER SERVICE MIDLAND TX
700 PM CDT TUE MAY 03 2016

...IN SOUTHWEST TEXAS AND SOUTHEAST NEW MEXICO...

CITY           SKY/WX    TMP DP  RH WIND       PRES   REMARKS
ALPINE         MOSUNNY   78  32  18 NE12G18   30.11R
ANDREWS        FAIR      78  35  20 W6        30.04R
ARTESIA        SUNNY     77  36  22 N16       30.07S
BIG SPRING     PTSUNNY   72  44  36 NE15      30.05R
CARLSBAD       MOSUNNY   78  30  17 NE8       30.03R
DRYDEN           N/A     80  47  31 E9        29.98S
FORT STOCKTON  SUNNY     80  37  21 NE13      30.01R
GUAD PASS      NOT AVBL
HOBBS          PTSUNNY   73  36  25 N23G35    30.08R
MARFA          MOSUNNY   78  33  19 NE13G20   30.07S
MIDLAND AIRPK  SUNNY     81  34  18 CALM      30.02S
MIDLAND INTL   SUNNY     80  35  19 SW5       30.01F
ODESSA         SUNNY     80  34  19 S7        30.03S
PECOS          SUNNY     83  32  15 NE8       29.99R
PRESIDIO       NOT AVBL
SEMINOLE       PTSUNNY   76  36  23 NE8G16    30.07R
SNYDER           N/A     63  53  69 NE14      30.07S
WINK           SUNNY     81  33  17 E5        30.00R
$$
...OTHER STATIONS IN TEXAS...

CITY           SKY/WX    TMP DP  RH WIND       PRES   REMARKS
ABILENE        LGT RAIN  62  58  86 N15       30.08R
AMARILLO       SUNNY     69  35  28 N20G29    30.10R
AUSTIN         SUNNY     73  49  42 NE12      30.00S
BROWNSVILLE    CLOUDY    72  61  68 N8        29.97S
CORPUS CHRISTI MOSUNNY   78  53  41 SE10      29.96S
DALLAS FTW     MOSUNNY   72  42  34 N8        30.03R
DEL RIO        SUNNY     79  55  43 SE7       29.96S
EL PASO        MOSUNNY   82  25  12 CALM      30.03R
HOUSTON INT    SUNNY     72  50  45 N10G20    29.97R
LUBBOCK        MOSUNNY   65  48  54 E7        30.09R
SAN ANGELO     SUNNY     79  42  26 CALM      30.02R
SAN ANTONIO    SUNNY     76  48  37 E12       30.00R
WACO           SUNNY     72  46  39 N9        30.02S
WICHITA FALLS  NOT AVBL
$$
...OTHER LOCATIONS IN NEW MEXICO...

CITY           SKY/WX    TMP DP  RH WIND       PRES   REMARKS
ALAMAGORDO     SUNNY     77  23  13 NW9       30.07S
ALBUQUERQUE    MOSUNNY   73  23  15 N8        30.15S
CANNON AFB     NOT AVBL
CLOVIS         SUNNY     70  30  23 NW14      30.14S
HOLLOMAN AFB   NOT AVBL
ROSWELL        SUNNY     77  35  21 NE12      30.09R
RUIDOSO          N/A     63  27  25 NE7G16    30.25R
SANTA FE       PTSUNNY   69  21  16 N12       30.20R
TRUTH OR CONSE MOSUNNY   74  28  18 NE6       30.10S
TUCUMCARI      SUNNY     74  23  15 NE16      30.12R
$$

USA.gov is the U.S. government's official web portal to all federal, state and local government web resources and services.